"Pseudo-MPEC" for v10jan5

Created 2025 Jan 22 22:31:17 UT using Find_Orb

Click here for an explanation of pseudo-MPECs

 
 Astrometry: 
     v10jan5*2C2025 01 10.36361 16 04 11.312-24 17 22.10   ~1B2l 21.9 rVNEOCPW84
     v10jan5 2C2025 01 10.36593 16 04 11.755-24 17 26.07   ~1B2l 21.8 rVNEOCPW84

Station data:
(W84) Cerro Tololo-DECam  (S30.169594 W70.806420)  Chile.  Observer S. S.
   Sheppard. Measurer S. Deen. 4.0-m reflector + CCD.

Orbital elements:  v10jan5
   Perihelion 2024 Nov 23.63990 +/- 52.1 TT = 15:21:27 (JD 2460638.13990)
Epoch 2025 Jan 10.0 TT = JDT 2460685.5   Earth MOID: 0.2739   Ve: 0.0629
M 148.67977865 +/- 100              Me: 0.0665                   AutoNEOCP
n   3.13934674 +/- 1.68             Peri.   21.52194 +/- 100
a   0.46193037 +/- 0.165            Node   330.48362 +/- 57
e   0.5881279 +/- 0.241             Incl.   18.77750 +/- 60
P   0.314/114.671d         H 20.38  G  0.15   U 13.1  SR
q 0.19025621 +/- 0.36    Q 0.73360454 +/- 8.8             (J2000 ecliptic)
From 2 observations 2025 Jan. 10 (3.3 min); mean residual 0".01
Residuals in arcseconds: 
250110 W84  .02+  .00     250110 W84  .02+  .00     

Ephemerides (geocentric):
Date (UTC) HH   RA             Dec           delta  r     elong  mag " sig PA
---- --------  ------------   ------------  ------ ------ -----  --- --------
2025 01 22 23  16 55 25.437   -29 52 10.07  .77856 .73217  47.3 22.0  47d 108
2025 01 23 00  16 55 37.885   -29 53 09.39  .77855 .73213  47.3 22.0  47d 108
2025 01 23 01  16 55 50.348   -29 54 08.65  .77854 .73209  47.3 22.0  47d 108
2025 01 23 02  16 56 02.827   -29 55 07.82  .77853 .73205  47.3 22.0  47d 108
2025 01 23 03  16 56 15.322   -29 56 06.93  .77852 .73200  47.3 22.0  47d 108
2025 01 23 04  16 56 27.832   -29 57 05.96  .77851 .73196  47.3 22.0  47d 108
2025 01 23 05  16 56 40.358   -29 58 04.92  .77851 .73192  47.3 22.0  47d 108
2025 01 23 06  16 56 52.900   -29 59 03.80  .77850 .73188  47.3 22.0  47d 108
2025 01 23 07  16 57 05.458   -30 00 02.61  .77849 .73183  47.3 22.0  47d 108
2025 01 23 08  16 57 18.032   -30 01 01.35  .77848 .73179  47.3 22.0  47d 108
2025 01 23 09  16 57 30.622   -30 02 00.00  .77847 .73174  47.3 22.0  47d 108
2025 01 23 10  16 57 43.227   -30 02 58.59  .77846 .73169  47.3 22.0  47d 108
2025 01 23 11  16 57 55.848   -30 03 57.10  .77846 .73165  47.3 22.0  47d 108
2025 01 23 12  16 58 08.485   -30 04 55.53  .77845 .73160  47.3 22.0  47d 108
2025 01 23 13  16 58 21.138   -30 05 53.89  .77844 .73155  47.3 22.0  48d 108
2025 01 23 14  16 58 33.807   -30 06 52.17  .77843 .73150  47.3 22.0  48d 108
2025 01 23 15  16 58 46.492   -30 07 50.37  .77842 .73146  47.3 22.0  48d 108
2025 01 23 16  16 58 59.192   -30 08 48.49  .77842 .73141  47.3 22.0  48d 108
2025 01 23 17  16 59 11.909   -30 09 46.54  .77841 .73136  47.3 22.0  48d 108
2025 01 23 18  16 59 24.641   -30 10 44.51  .77840 .73131  47.3 22.0  48d 108
2025 01 23 19  16 59 37.389   -30 11 42.41  .77839 .73125  47.3 22.0  48d 108
2025 01 23 20  16 59 50.153   -30 12 40.22  .77839 .73120  47.3 22.0  48d 108
2025 01 23 21  17 00 02.933   -30 13 37.96  .77838 .73115  47.2 22.0  48d 108
2025 01 23 22  17 00 15.729   -30 14 35.61  .77837 .73110  47.2 22.0  48d 108
2025 01 23 23  17 00 28.540   -30 15 33.19  .77836 .73104  47.2 22.0  48d 108
2025 01 24 00  17 00 41.368   -30 16 30.69  .77836 .73099  47.2 22.0  48d 108
2025 01 24 01  17 00 54.212   -30 17 28.10  .77835 .73094  47.2 22.0  48d 108
2025 01 24 02  17 01 07.071   -30 18 25.44  .77834 .73088  47.2 22.0  48d 109
2025 01 24 03  17 01 19.946   -30 19 22.70  .77833 .73082  47.2 22.0  48d 109
2025 01 24 04  17 01 32.838   -30 20 19.87  .77833 .73077  47.2 22.0  48d 109
2025 01 24 05  17 01 45.745   -30 21 16.97  .77832 .73071  47.2 22.0  48d 109
2025 01 24 06  17 01 58.668   -30 22 13.98  .77831 .73065  47.2 22.0  48d 109
2025 01 24 07  17 02 11.607   -30 23 10.91  .77830 .73060  47.2 22.0  48d 109
2025 01 24 08  17 02 24.562   -30 24 07.76  .77830 .73054  47.2 22.0  48d 109
2025 01 24 09  17 02 37.534   -30 25 04.53  .77829 .73048  47.2 22.0  48d 109
2025 01 24 10  17 02 50.521   -30 26 01.21  .77828 .73042  47.2 22.0  48d 109
2025 01 24 11  17 03 03.524   -30 26 57.81  .77828 .73036  47.2 22.0  48d 109
2025 01 24 12  17 03 16.543   -30 27 54.33  .77827 .73030  47.2 22.0  48d 109
2025 01 24 13  17 03 29.578   -30 28 50.76  .77826 .73024  47.2 22.0  48d 109
2025 01 24 14  17 03 42.629   -30 29 47.11  .77826 .73018  47.2 22.0  48d 109
2025 01 24 15  17 03 55.695   -30 30 43.38  .77825 .73011  47.2 22.0  48d 109
2025 01 24 16  17 04 08.778   -30 31 39.56  .77824 .73005  47.2 22.0  48d 109
2025 01 24 17  17 04 21.877   -30 32 35.65  .77824 .72999  47.2 22.0  48d 109
2025 01 24 18  17 04 34.992   -30 33 31.66  .77823 .72992  47.2 22.0  48d 109
2025 01 24 19  17 04 48.123   -30 34 27.59  .77823 .72986  47.1 22.0  48d 109
2025 01 24 20  17 05 01.270   -30 35 23.42  .77822 .72979  47.1 22.0  48d 109
2025 01 24 21  17 05 14.433   -30 36 19.18  .77821 .72973  47.1 22.0  49d 109
2025 01 24 22  17 05 27.612   -30 37 14.84  .77821 .72966  47.1 22.0  49d 109